[ hide orbit diagram ]
For accurate long-term ephemerides, please instead use our Horizons system.This orbit viewer was implemented using two-body methods, and hence should not be used for determining accurate long-term trajectories (over several years or decades) or planetary encounter circumstances.
Orbital Elements at Epoch 2459200.5 (2020-Dec-17.0) TDB
Reference: JPL 8 (heliocentric ecliptic J2000)
Element | Value | Uncertainty (1-sigma) | Units |
e | .05848843572736204 | 6.843e-08 | |
a | 3.040611838459301 | 4.4766e-08 | au |
q | 2.862771208373718 | 2.3062e-07 | au |
i | .9209669850206248 | 9.7327e-06 | deg |
node | 39.15868593871428 | 0.00031765 | deg |
peri | 300.3920050684108 | 0.0003296 | deg |
M | 293.2487199341432 | 8.9622e-05 | deg |
tp | 2459559.584779940659 (2021-Dec-11.08477994) | 0.00048599 | TDB |
period | 1936.599877202338 5.30 | 4.2768e-05 1.171e-07 | d yr |
n | .185892813604876 | 4.1052e-09 | deg/d |
Q | 3.218452468544884 | 4.7384e-08 | au |
|
| | Orbit Determination Parameters
Additional Information
|
[ show covariance matrix ]
Physical Parameter Table
Parameter |
Symbol |
Value |
Units |
Sigma |
Reference |
Notes |
absolute magnitude |
H |
16.65 |
|
n/a |
E2021B55 |
|
|
300128 Panditjasraj | Discovered 2006 Nov. 11 by Mt. Lemmon Survey at Mount Lemmon. |
Sangeet Martand Pandit Jasraj (b. 1930) is an exponent of Indian Classical vocal music. Jasraj is the recipient of numerous awards, honors, and titles including the prestigious Padma Vibhushan and the Sangeet Natak Akademi Award. His distinctive voice traverses a remarkable four-and-a-half octaves. |
NOTE: some special characters may not display properly (any characters within {} are an attempt to place the proper accent above a character) |
Reference: MPC batch dated 2019-08-27 | Last Updated: 2019-09-23 |
|
[ show close-approach data ]
|